Flag for Germany Weather past 2 weeks in Coesfeld, North Rhine-Westphalia, Germany

Now
61 °F

Cool.


Feels Like: 61 °F
Forecast: 48 / 67 °F
Wind: No wind

Location: Rheine-Bentlage

Current Time: Sep 1, 2014 at 9:33:43 PM

Latest Report: Sep 1, 2014 at 8:20 PM


Visibility: 3 mi

Pressure: 30.12 "Hg

Humidity: 88%

Dew point: 57 °F

Location of CoesfeldLocation

Historic Weather in Coesfeld — Graph

°F

Coesfeld temperature yesterday

Maximum temperature yesterday: 66 °F (at 5:20 PM)
Minimum temperature yesterday: 52 °F (at 10:20 PM)
Average temperature yesterday: 58 °F

Past Weeks' High & Low Weather Summary

 TemperatureHumidityPressure
High73 °F (Aug 28, 3:20 PM)100% (Aug 19, 4:20 AM)30.12 "Hg (Aug 19, 4:20 AM)
Low43 °F (Aug 25, 5:20 AM)43% (Aug 27, 6:20 PM)29.59 "Hg (Aug 18, 6:20 AM)
Average57 °F83%29.93 "Hg
* Reported Aug 18 5:20 AM — Sep 1 8:20 PM, Coesfeld, Weather by CustomWeather, © 2014

Note: Actual official high and low records may vary slightly from our data, if they occured in-between our weather recording intervals... More about our weather records

Advertising

Coesfeld weather history for previous 24 hours

 ConditionsComfort  
Time TempWeatherWind HumidityBarometerVisibility
8:20 PM
Sep 1
61 °FCool.No wind88%30.12 "Hg3 mi
7:20 PM63 °FMild.1 mph77%30.12 "Hg4 mi
6:20 PM66 °FMild.5 mph64%30.09 "Hg4 mi
5:20 PM66 °FMild.10 mph64%30.09 "Hg4 mi
4:20 PM66 °FMild.8 mph64%30.09 "Hg4 mi
3:20 PM66 °FMild.9 mph64%30.09 "Hg4 mi
2:20 PM68 °FScattered clouds.10 mph60%30.12 "HgN/A
1:20 PM64 °FScattered clouds.9 mph64%30.12 "HgN/A
12:20 PM64 °FScattered clouds.8 mph73%30.12 "HgN/A
11:20 AM63 °FScattered clouds.6 mph77%30.12 "HgN/A
10:20 AM57 °FScattered clouds.6 mph94%30.12 "HgN/A
9:20 AM54 °FFog.6 mph100%30.09 "Hg2 mi
8:56 AM54 °FFog.6 mph100%30.09 "Hg1 mi
8:48 AM54 °FFog.5 mph94%30.09 "Hg1 mi
8:20 AM52 °FFog.6 mph100%30.09 "Hg0 mi
7:20 AM50 °FFog.3 mph100%30.09 "Hg0 mi
6:20 AM50 °FCool.3 mph100%30.09 "Hg1 mi
5:20 AM50 °FCool.5 mph100%30.09 "Hg0 mi
4:20 AM50 °FCool.3 mph100%30.07 "Hg0 mi
3:20 AM50 °FCool.3 mph100%30.07 "Hg1 mi
2:20 AM50 °FCool.2 mph100%30.07 "Hg1 mi
1:20 AM50 °FCool.3 mph100%30.04 "Hg1 mi
12:20 AM50 °FCool.3 mph100%30.04 "Hg1 mi
11:20 PM
Aug 31
52 °FCool.3 mph94%30.04 "Hg1 mi
10:20 PM52 °FCool.3 mph100%30.01 "Hg2 mi
9:20 PM54 °FCool.1 mph94%30.01 "Hg3 mi
Weather by CustomWeather, © 2014

See weather overviewHow to use our weather pages